When you browse on this site, cookies collect data to enhance your experience and personalize the content and advertising you see.
Visit our Privacy Policy to learn more. By continuing to use the site, you agree to this use of cookies and data.
  • Em Portugal
  • Lista de países
  • Para 7 dias
  • Temperatura da água
  • Mapas de satélite
  • Mapa do tempo
  • Widgets de tempo
  • user-avatar
    Iniciar Sessão

    Previsão horária em Razgrad

    Hoje, 21 Abril, Domingo

    Tempo Temperatura Precipitação Vento Pressão Humidade
    00:00 +5°C° 0 mm 1 m/s 749 mmHg 68%
    01:00 +4°C° 0 mm 2 m/s 749 mmHg 69%
    02:00 +4°C° 0 mm 2 m/s 749 mmHg 70%
    03:00 +4°C° 0 mm 2 m/s 748 mmHg 70%
    04:00 +4°C° 0 mm 2 m/s 748 mmHg 70%
    05:00 +5°C° 0 mm 1 m/s 748 mmHg 69%
    06:00 +6°C° 0 mm 1 m/s 748 mmHg 66%
    07:00 +8°C° 0 mm 1 m/s 748 mmHg 62%
    08:00 +10°C° 0 mm 1 m/s 748 mmHg 58%
    09:00 +11°C° 0 mm 1 m/s 747 mmHg 55%
    10:00 +13°C° 0 mm 1 m/s 747 mmHg 51%
    11:00 +14°C° 0 mm 1 m/s 747 mmHg 48%
    12:00 +15°C° 0 mm 2 m/s 747 mmHg 48%
    13:00 +15°C° 0 mm 2 m/s 746 mmHg 48%
    14:00 +16°C° 0 mm 2 m/s 746 mmHg 48%
    15:00 +16°C° 0.1 mm 2 m/s 746 mmHg 50%
    16:00 +15°C° 0.1 mm 1 m/s 745 mmHg 52%
    17:00 +15°C° 0.1 mm 1 m/s 745 mmHg 54%
    18:00 +14°C° 0 mm 2 m/s 745 mmHg 60%
    19:00 +12°C° 0 mm 2 m/s 745 mmHg 66%
    20:00 +9°C° 0 mm 2 m/s 745 mmHg 72%
    21:00 +9°C° 0 mm 2 m/s 745 mmHg 75%
    22:00 +8°C° 0 mm 2 m/s 745 mmHg 78%
    23:00 +7°C° 0 mm 3 m/s 745 mmHg 81%

    Amanhã, 22 Abril, Segunda-feira

    Tempo Temperatura Precipitação Vento Pressão Humidade
    00:00 +7°C° 0 mm 2 m/s 745 mmHg 81%
    01:00 +7°C° 0 mm 2 m/s 745 mmHg 82%
    02:00 +7°C° 0 mm 2 m/s 745 mmHg 82%
    03:00 +6°C° 0 mm 2 m/s 745 mmHg 81%
    04:00 +6°C° 0 mm 2 m/s 744 mmHg 80%
    05:00 +6°C° 0 mm 2 m/s 744 mmHg 79%
    06:00 +8°C° 0 mm 2 m/s 744 mmHg 76%
    07:00 +9°C° 0 mm 2 m/s 744 mmHg 73%
    08:00 +11°C° 0 mm 3 m/s 744 mmHg 69%
    09:00 +13°C° 0 mm 3 m/s 745 mmHg 65%
    10:00 +14°C° 0 mm 3 m/s 745 mmHg 60%
    11:00 +17°C° 0 mm 4 m/s 745 mmHg 55%
    12:00 +17°C° 0.3 mm 4 m/s 745 mmHg 55%
    13:00 +18°C° 0.3 mm 4 m/s 744 mmHg 55%
    14:00 +18°C° 0.3 mm 4 m/s 744 mmHg 54%
    15:00 +17°C° 0.6 mm 4 m/s 744 mmHg 59%
    16:00 +15°C° 0.6 mm 5 m/s 744 mmHg 64%
    17:00 +15°C° 0.6 mm 5 m/s 744 mmHg 69%
    18:00 +13°C° 0.1 mm 5 m/s 744 mmHg 72%
    19:00 +10°C° 0.1 mm 5 m/s 745 mmHg 76%
    20:00 +8°C° 0.1 mm 5 m/s 745 mmHg 79%
    21:00 +7°C° 0 mm 5 m/s 745 mmHg 78%
    22:00 +6°C° 0 mm 5 m/s 745 mmHg 77%
    23:00 +6°C° 0 mm 5 m/s 745 mmHg 75%

    Depois de amanhã, 23 Abril, Terça-feira

    Tempo Temperatura Precipitação Vento Pressão Humidade
    00:00 +5°C° 0 mm 5 m/s 745 mmHg 76%
    01:00 +5°C° 0 mm 5 m/s 746 mmHg 76%
    02:00 +5°C° 0 mm 5 m/s 746 mmHg 76%
    03:00 +5°C° 0 mm 4 m/s 746 mmHg 76%
    04:00 +5°C° 0 mm 4 m/s 746 mmHg 75%
    05:00 +5°C° 0 mm 4 m/s 746 mmHg 74%
    06:00 +6°C° 0 mm 5 m/s 746 mmHg 72%
    07:00 +7°C° 0 mm 5 m/s 746 mmHg 70%
    08:00 +8°C° 0 mm 5 m/s 747 mmHg 68%
    09:00 +9°C° 0 mm 6 m/s 747 mmHg 65%
    10:00 +10°C° 0 mm 6 m/s 747 mmHg 62%
    11:00 +11°C° 0 mm 7 m/s 747 mmHg 60%
    12:00 +11°C° 0 mm 7 m/s 747 mmHg 58%
    13:00 +12°C° 0 mm 7 m/s 746 mmHg 57%
    14:00 +14°C° 0 mm 7 m/s 746 mmHg 55%
    15:00 +14°C° 0 mm 7 m/s 746 mmHg 57%
    16:00 +14°C° 0 mm 7 m/s 746 mmHg 60%
    17:00 +12°C° 0 mm 7 m/s 746 mmHg 62%
    18:00 +11°C° 0 mm 6 m/s 746 mmHg 65%
    19:00 +10°C° 0 mm 6 m/s 746 mmHg 69%
    20:00 +8°C° 0 mm 5 m/s 746 mmHg 72%
    21:00 +8°C° 0 mm 5 m/s 746 mmHg 72%
    22:00 +8°C° 0 mm 5 m/s 746 mmHg 73%
    23:00 +8°C° 0 mm 5 m/s 746 mmHg 73%

    24 Abril, Quarta-feira

    Tempo Temperatura Precipitação Vento Pressão Humidade
    00:00 +7°C° 0 mm 4 m/s 746 mmHg 74%
    01:00 +7°C° 0 mm 4 m/s 746 mmHg 76%
    02:00 +7°C° 0 mm 4 m/s 746 mmHg 77%
    03:00 +7°C° 0 mm 3 m/s 746 mmHg 80%
    04:00 +7°C° 0 mm 2 m/s 746 mmHg 83%
    05:00 +6°C° 0 mm 2 m/s 746 mmHg 86%
    06:00 +8°C° 0 mm 2 m/s 747 mmHg 81%
    07:00 +10°C° 0 mm 2 m/s 747 mmHg 76%
    08:00 +12°C° 0 mm 2 m/s 748 mmHg 70%
    09:00 +14°C° 0 mm 2 m/s 748 mmHg 65%
    10:00 +17°C° 0 mm 2 m/s 748 mmHg 60%
    11:00 +19°C° 0 mm 2 m/s 748 mmHg 55%
    12:00 +20°C° 0 mm 2 m/s 748 mmHg 54%
    13:00 +21°C° 0 mm 3 m/s 748 mmHg 53%
    14:00 +22°C° 0 mm 3 m/s 748 mmHg 52%
    15:00 +21°C° 0 mm 4 m/s 747 mmHg 56%
    16:00 +20°C° 0 mm 4 m/s 747 mmHg 61%
    17:00 +20°C° 0 mm 5 m/s 747 mmHg 65%
    18:00 +17°C° 0 mm 5 m/s 747 mmHg 71%
    19:00 +14°C° 0 mm 4 m/s 747 mmHg 77%
    20:00 +12°C° 0 mm 4 m/s 747 mmHg 83%
    21:00 +11°C° 0 mm 3 m/s 748 mmHg 85%
    22:00 +11°C° 0 mm 3 m/s 748 mmHg 86%
    23:00 +10°C° 0 mm 3 m/s 748 mmHg 87%

    25 Abril, Quinta-feira

    Tempo Temperatura Precipitação Vento Pressão Humidade
    00:00 +9°C° 0 mm 3 m/s 748 mmHg 87%
    01:00 +9°C° 0 mm 3 m/s 748 mmHg 87%
    02:00 +9°C° 0 mm 2 m/s 748 mmHg 87%
    03:00 +9°C° 0 mm 2 m/s 748 mmHg 88%
    04:00 +9°C° 0 mm 2 m/s 748 mmHg 89%
    05:00 +9°C° 0 mm 2 m/s 748 mmHg 90%
    06:00 +10°C° 0 mm 2 m/s 748 mmHg 85%
    07:00 +13°C° 0 mm 2 m/s 748 mmHg 80%
    08:00 +15°C° 0 mm 2 m/s 749 mmHg 74%
    09:00 +17°C° 0 mm 2 m/s 749 mmHg 68%
    10:00 +19°C° 0 mm 3 m/s 749 mmHg 62%
    11:00 +21°C° 0 mm 3 m/s 749 mmHg 56%
    12:00 +22°C° 0 mm 3 m/s 749 mmHg 54%
    13:00 +22°C° 0 mm 3 m/s 748 mmHg 52%
    14:00 +24°C° 0 mm 3 m/s 748 mmHg 50%
    15:00 +22°C° 0 mm 4 m/s 748 mmHg 55%
    16:00 +22°C° 0 mm 4 m/s 747 mmHg 59%
    17:00 +21°C° 0 mm 5 m/s 747 mmHg 63%
    18:00 +19°C° 0 mm 5 m/s 747 mmHg 68%
    19:00 +15°C° 0 mm 4 m/s 747 mmHg 73%
    20:00 +13°C° 0 mm 4 m/s 747 mmHg 77%
    21:00 +12°C° 0 mm 3 m/s 747 mmHg 77%
    22:00 +11°C° 0 mm 3 m/s 747 mmHg 78%
    23:00 +10°C° 0 mm 3 m/s 747 mmHg 78%

    26 Abril, Sexta-feira

    Tempo Temperatura Precipitação Vento Pressão Humidade
    00:00 +10°C° 0 mm 3 m/s 747 mmHg 76%
    01:00 +10°C° 0 mm 3 m/s 746 mmHg 74%
    02:00 +10°C° 0 mm 2 m/s 746 mmHg 72%
    03:00 +9°C° 0 mm 2 m/s 746 mmHg 71%
    04:00 +9°C° 0 mm 2 m/s 746 mmHg 70%
    05:00 +9°C° 0 mm 2 m/s 746 mmHg 69%
    06:00 +11°C° 0 mm 3 m/s 746 mmHg 67%
    07:00 +12°C° 0 mm 3 m/s 746 mmHg 65%
    08:00 +14°C° 0 mm 3 m/s 746 mmHg 63%
    09:00 +17°C° 0 mm 3 m/s 746 mmHg 59%
    10:00 +18°C° 0 mm 4 m/s 746 mmHg 55%
    11:00 +20°C° 0 mm 4 m/s 746 mmHg 51%
    12:00 +21°C° 0 mm 4 m/s 745 mmHg 50%
    13:00 +22°C° 0 mm 4 m/s 745 mmHg 49%
    14:00 +23°C° 0 mm 4 m/s 744 mmHg 49%
    15:00 +22°C° 0 mm 4 m/s 744 mmHg 52%
    16:00 +21°C° 0 mm 4 m/s 743 mmHg 55%
    17:00 +21°C° 0 mm 5 m/s 743 mmHg 58%
    18:00 +18°C° 0 mm 4 m/s 743 mmHg 62%
    19:00 +15°C° 0 mm 4 m/s 743 mmHg 67%
    20:00 +13°C° 0 mm 3 m/s 743 mmHg 71%
    21:00 +12°C° 0 mm 3 m/s 743 mmHg 71%
    22:00 +11°C° 0 mm 3 m/s 742 mmHg 70%
    23:00 +11°C° 0 mm 3 m/s 742 mmHg 69%
    Mostrar mais